Probability
0 0 0 0 0 0 0 0 0 0 0 0 0 0 0 0 0 0 0 0 0 0 0 0 0 0 0 0 1 0 0 0 0 0 0 0 0 0 0 0 0 0 0
0 0 0 0 0 0 0 0 0 0 0 0 0 0 0 0 0 0 0 0 0 0 0 0 0 0 0 0 1 0 0 0 0 0 0 0 0 0 0 0 0 0 0
0 0 0 0 0 0 0 0 0 0 0 0 0 0 0 0 0 0 0 0 0 0 0 0 0 0 0 0 0 0 0 0 0 0 0 0 0 0 0 0 0 0 0
0 0 0 0 0 0 0 0 0 0 0 0 0 0 0 0 0 0 0 0 0 0 0 0 0 0 0 0 0 0 1 1 1 0 0 0 0 0 0 0 0 0 0
0 0 0 0 0 0 0 0 0 0 0 0 0 0 0 0 0 0 0 0 0 0 0 0 0 0 0 0 0 0 1 2 1 0 0 0 0 0 0 0 0 0 0
0 0 0 0 0 0 0 0 0 0 0 0 0 0 0 0 0 0 0 0 0 0 0 0 0 0 0 0 0 0 0 1 1 0 0 0 0 0 0 0 0 0 0
0 0 0 0 0 0 0 0 0 0 0 0 0 0 0 0 0 0 0 0 0 0 0 0 0 0 0 0 0 0 0 0 0 0 0 0 0 0 0 0 0 0 0
0 0 0 0 0 0 0 0 0 0 0 0 0 0 0 0 0 0 0 0 0 0 0 0 0 0 0 0 0 0 0 0 0 0 0 0 0 0 0 0 0 0 0
0 0 0 0 0 0 0 0 0 0 0 0 0 0 0 0 0 0 0 0 0 0 0 0 0 0 0 0 0 0 0 0 0 0 0 0 0 0 0 0 0 0 0
0 0 0 0 0 0 0 0 0 0 0 0 0 0 0 0 0 0 0 0 0 0 0 0 0 0 0 0 0 0 0 0 0 0 0 0 0 0 0 0 0 0 0
0 0 0 0 0 0 0 0 0 0 0 0 0 0 0 0 0 0 0 0 0 0 0 0 0 0 0 0 0 0 0 0 0 0 0 0 0 0 0 0 0 0 0
0 0 0 0 0 0 0 0 0 0 0 0 0 0 0 0 0 0 0 0 0 0 0 0 0 0 0 0 0 0 0 0 0 0 0 0 0 0 0 0 0 0 0
0 0 0 0 0 0 0 0 0 0 0 0 0 0 0 0 0 0 0 0 0 0 0 0 0 0 0 0 0 0 0 0 0 0 0 0 0 0 0 0 0 0 0
0 0 0 0 0 0 0 0 0 0 0 0 0 0 0 0 0 0 0 0 0 0 0 0 0 0 0 0 0 0 0 0 0 0 0 0 0 0 0 0 0 0 0
0 0 0 0 0 0 0 0 0 0 0 0 0 0 0 0 0 0 0 0 0 0 0 0 0 0 0 0 0 0 0 0 0 0 0 0 0 0 0 0 0 0 0
0 0 0 0 0 0 0 0 0 0 0 0 0 0 0 0 0 0 0 0 0 0 0 0 0 0 0 0 0 0 0 0 0 0 0 0 0 0 0 0 0 0 0
0 0 0 0 0 0 0 0 0 0 0 0 0 0 0 0 0 0 0 0 0 0 0 0 0 0 0 0 0 0 0 0 0 0 0 0 0 0 0 0 0 0 0
0 0 0 0 0 0 0 0 0 0 0 0 0 0 0 0 0 0 0 0 0 0 0 0 0 0 0 0 0 0 0 0 0 0 0 0 0 0 0 0 0 0 0
0 0 0 0 0 0 0 0 0 0 0 0 0 0 0 0 0 0 0 0 0 0 0 0 0 0 0 0 0 0 0 0 0 0 0 0 0 0 0 0 0 0 0
0 0 0 0 0 0 0 0 0 0 0 0 0 0 0 0 0 0 0 0 0 0 0 0 0 0 0 0 0 0 0 0 0 0 0 0 0 0 0 0 0 0 0
0 0 0 0 0 0 0 0 0 0 0 0 0 0 0 0 0 0 0 0 0 0 0 0 0 0 0 0 0 0 0 0 0 0 0 0 0 0 0 0 0 0 0
0 0 0 0 0 0 0 0 0 0 0 0 0 0 0 0 0 0 0 0 0 0 0 0 0 0 0 0 0 0 0 0 0 0 0 0 0 0 0 0 0 0 0
0 0 0 0 0 0 0 0 0 0 0 0 0 0 0 0 0 0 0 0 0 0 0 0 0 0 0 0 0 0 0 0 0 0 0 0 0 0 0 0 0 0 0
0 0 0 0 0 0 0 0 0 0 0 0 0 0 0 0 0 0 0 0 0 0 0 0 0 0 0 0 0 0 0 0 0 0 0 0 0 0 0 0 0 0 0
0 0 0 0 0 0 0 0 0 0 0 0 0 0 0 0 0 0 0 0 0 0 0 0 0 0 0 0 0 0 0 0 0 0 0 0 0 0 0 0 0 0 0
0 0 0 0 0 0 0 0 0 0 0 0 0 0 0 0 0 0 0 0 0 0 0 0 0 0 0 0 0 0 0 0 0 0 0 0 0 0 0 0 0 0 0
Wind_Speed
7 8 8 8 8 8 8 8 7 7 7 7 7 7 7 7 7 7 7 7 8 8 8 9 10 9 7 7 7 7 8 8 12 11 8 8 10 10 8 9 10 10 9
6 6 7 7 7 7 7 7 6 7 6 6 6 6 6 6 6 7 7 7 8 8 8 8 9 7 9 7 7 8 8 8 10 13 10 8 10 9 10 10 8 8 9
4 5 6 6 6 7 6 6 5 5 5 5 5 5 5 5 5 5 6 6 7 7 7 8 7 7 8 6 7 7 6 7 8 10 11 9 7 6 8 8 9 8 8
4 5 5 5 5 5 5 5 5 5 5 4 4 4 4 4 4 4 4 4 5 5 5 5 5 6 6 6 6 7 6 7 7 8 9 8 7 6 5 7 8 6 8
4 4 5 4 4 4 4 4 4 4 4 3 3 3 3 3 3 3 3 4 4 4 4 4 4 4 5 6 5 6 6 7 7 7 8 8 7 6 6 5 8 8 8
4 4 3 4 4 4 4 4 4 3 3 3 3 3 2 1 1 2 3 3 4 4 4 4 4 4 4 6 7 8 8 9 8 8 8 9 9 8 7 6 7 7 8
4 4 3 3 4 4 4 4 4 4 3 3 3 2 2 1 1 1 1 2 3 3 3 3 3 3 4 5 6 7 8 9 10 10 10 10 9 8 8 8 8 8 10
4 4 3 3 3 3 4 4 4 3 3 3 3 3 2 1 1 1 1 2 2 2 2 3 3 3 3 5 5 5 5 5 6 6 7 8 8 8 7 8 9 9 9
4 4 4 4 4 4 4 4 3 3 3 3 2 2 2 1 1 1 0 1 0 1 2 2 2 3 5 6 4 5 5 5 5 6 8 8 10 10 8 6 5 6 8
5 4 4 4 5 5 4 3 3 3 3 3 2 2 2 1 2 2 1 0 0 0 1 1 2 3 5 6 4 4 5 6 5 6 6 6 7 7 7 6 5 6 6
3 3 3 3 3 4 4 3 4 4 4 3 3 2 2 1 2 2 2 0 0 0 1 1 2 4 5 5 5 4 6 7 5 5 5 4 4 4 4 5 5 5 6
4 4 3 3 2 3 4 3 3 4 4 3 3 2 2 1 2 2 2 2 1 0 1 1 2 4 5 5 5 5 7 6 4 4 4 4 5 5 5 6 6 6 7
4 4 4 3 2 3 3 4 4 3 3 2 2 2 1 1 1 2 2 2 2 1 1 2 3 4 4 4 5 6 5 3 3 4 4 5 5 6 6 6 6 6 7
5 4 4 4 3 2 2 2 2 3 3 3 2 2 1 1 0 0 0 1 1 1 1 1 2 3 3 3 3 4 3 3 4 4 5 5 5 5 5 6 6 7 6
4 4 3 3 3 2 2 1 2 1 2 3 2 2 2 2 1 1 0 0 0 1 1 1 1 1 2 2 2 3 3 3 3 4 4 5 5 6 6 6 5 6 6
5 4 3 3 2 2 2 2 2 2 2 2 1 1 0 1 1 1 0 1 1 1 0 0 1 1 2 2 3 3 3 3 4 4 4 5 5 6 6 6 5 6 6
5 4 3 3 3 3 3 3 2 2 3 2 2 1 0 1 1 1 1 1 1 1 0 0 1 1 2 2 3 3 4 4 4 4 4 5 5 6 6 6 6 6 7
4 4 4 3 3 3 3 3 2 3 2 1 1 1 1 1 1 2 2 2 1 1 0 1 1 2 2 3 3 4 4 4 4 4 5 5 5 6 6 6 6 7 7
3 3 3 3 3 3 3 3 3 3 2 2 1 1 1 1 1 2 2 0 0 1 1 1 2 2 3 3 3 4 4 5 5 5 5 5 5 6 6 6 7 8 8
2 3 3 3 3 3 3 3 3 3 3 3 2 2 1 1 1 0 0 1 1 1 2 2 2 3 3 3 4 4 5 5 5 5 5 5 6 6 7 8 7 7 7
2 3 4 3 3 3 3 3 3 3 3 3 3 3 3 2 2 2 2 2 2 2 2 3 3 3 3 3 4 5 6 5 5 5 5 6 6 6 6 7 7 7 7
2 3 3 3 3 3 3 3 3 3 3 3 2 2 3 2 2 2 2 2 2 2 3 3 3 3 3 4 4 5 5 6 6 6 6 6 6 6 7 7 7 7 7
2 2 3 2 2 3 3 3 3 3 3 3 3 3 2 2 3 3 3 3 3 3 3 3 4 4 4 4 5 5 6 6 6 7 7 7 7 6 7 7 8 8 8
2 2 2 3 3 3 3 3 3 3 3 3 3 3 3 3 3 3 3 3 3 3 3 3 4 6 7 6 5 5 6 7 7 7 9 8 8 7 7 7 8 8 8
2 2 2 2 3 3 3 3 3 3 3 4 3 3 3 3 3 3 3 3 4 4 5 5 4 5 7 8 8 7 9 11 10 8 7 7 8 8 8 9 8 8 8
2 2 2 2 3 3 3 3 4 4 4 4 4 4 4 4 4 4 3 3 3 4 5 5 6 7 9 8 9 10 11 11 11 10 8 6 7 7 8 7 9 8 9
Wind_Direction
221 217 214 215 214 213 215 216 216 217 216 214 214 215 216 218 219 221 225 229 232 237 238 241 246 248 249 247 246 246 246 248 263 273 272 276 276 274 272 268 268 268 266
219 214 212 211 208 208 211 213 212 215 215 214 213 213 215 218 219 221 226 229 233 237 240 243 248 250 252 252 251 252 252 251 260 272 277 277 275 276 277 276 271 266 268
212 206 205 205 205 207 209 208 207 207 208 210 210 210 213 218 223 228 231 235 238 242 245 246 250 251 253 256 259 261 262 262 261 269 276 278 278 279 281 278 274 271 271
209 201 200 205 206 206 203 202 201 197 199 202 204 208 213 217 222 226 230 235 240 245 251 254 257 257 261 264 262 264 268 268 267 269 274 278 278 282 280 281 283 278 277
208 204 204 200 197 196 195 194 190 186 189 189 188 199 210 217 222 225 225 231 237 243 249 255 259 264 269 268 268 268 268 266 267 268 271 277 278 283 280 280 280 287 281
206 207 201 191 185 185 186 180 171 172 173 168 172 179 191 204 207 217 232 232 236 241 252 259 261 259 264 268 266 267 266 265 266 267 269 270 277 281 284 282 284 289 285
202 200 191 185 177 177 174 167 166 170 167 163 168 173 183 179 141 180 229 234 236 244 255 266 273 284 281 285 279 272 269 271 269 271 272 275 283 288 289 286 282 279 276
193 189 185 180 174 163 160 167 167 166 165 162 161 165 160 130 98 124 220 219 234 255 270 275 279 295 311 307 295 289 288 286 287 280 280 287 293 298 291 282 282 283 283
195 192 185 181 174 163 164 168 158 152 152 143 142 149 143 108 76 86 120 219 222 335 342 335 318 312 328 326 308 296 298 303 313 304 296 294 300 301 294 286 284 285 285
202 194 181 179 176 168 161 152 139 139 136 125 114 104 107 86 57 63 71 164 156 345 348 351 354 337 336 334 314 301 299 307 312 310 305 304 302 308 312 293 284 280 286
178 164 159 169 173 162 147 140 136 132 132 130 120 101 86 64 50 49 48 96 176 267 306 326 336 344 339 338 328 309 309 313 305 302 303 308 314 315 316 311 300 283 278
158 153 152 155 159 149 143 137 132 135 139 142 133 116 89 64 41 36 39 41 21 270 283 309 329 344 344 344 341 338 334 326 316 314 315 321 324 324 320 314 307 296 282
150 149 145 140 140 145 152 147 140 143 152 155 153 156 142 105 62 36 36 41 23 352 308 334 344 350 349 352 358 348 341 334 326 324 322 321 322 318 316 313 310 303 294
156 154 146 145 143 137 140 142 149 159 164 167 174 171 165 167 164 39 83 58 31 24 22 24 9 2 359 354 350 351 349 339 327 318 317 317 320 321 320 321 318 320 311
157 153 148 146 146 144 134 145 165 181 180 176 185 181 177 198 229 285 359 64 2 357 356 354 352 348 350 344 343 343 338 333 328 322 319 319 319 318 317 321 317 318 310
161 161 158 153 150 153 150 127 100 128 114 115 129 173 224 230 182 172 138 87 86 97 89 253 307 317 318 320 322 322 324 325 323 320 318 317 315 314 313 315 315 310 306
169 166 161 161 165 166 167 168 157 111 106 116 108 88 92 127 134 122 106 107 98 95 141 235 276 295 303 308 309 308 311 317 316 314 312 311 310 308 307 308 309 307 305
165 165 166 171 174 175 177 179 179 178 175 161 134 129 102 97 98 91 87 92 87 46 310 281 291 294 295 297 301 304 306 309 309 308 306 305 304 303 302 302 302 303 303
171 175 172 168 172 175 175 178 181 184 186 186 182 142 92 89 81 69 61 81 192 256 275 277 283 289 292 296 299 301 301 301 302 300 298 298 298 297 295 297 296 297 295
177 175 173 173 174 173 175 181 186 186 185 191 200 198 183 173 176 226 289 239 233 249 262 268 274 278 284 288 294 295 294 294 296 293 295 297 297 294 293 294 293 294 292
180 174 174 178 185 183 182 187 191 191 195 205 214 219 221 210 215 228 232 234 238 245 253 262 268 272 275 280 284 285 288 290 291 291 292 293 295 293 292 290 291 290 292
182 184 186 189 188 187 188 190 193 199 204 211 216 218 228 230 225 236 243 247 250 254 260 263 265 268 271 274 279 282 283 285 287 288 290 290 290 290 290 290 290 291 291
176 182 186 189 190 185 189 194 198 203 208 213 217 218 217 223 225 232 244 253 256 258 259 258 263 269 272 273 273 273 275 277 281 284 287 287 288 287 288 288 286 287 287
177 184 190 191 192 196 199 201 205 208 211 216 221 224 225 230 237 242 248 256 262 265 263 261 262 267 274 279 276 273 271 275 279 276 275 277 282 284 285 284 282 282 283
178 190 202 204 203 205 208 211 212 212 215 220 224 228 230 233 239 245 249 251 258 262 267 269 266 269 274 279 280 279 280 283 281 277 274 272 275 278 280 282 282 284 284
193 200 207 210 215 217 216 217 219 220 222 225 227 229 230 234 238 243 247 248 254 262 267 268 269 276 282 283 283 285 284 284 282 277 273 272 274 276 280 281 284 284 284